COSMOS 1275 DEB, 39962

Orbit data source: Space-Track

COSMOS 1275 DEB, 39962 is space debris in LEO originally from a launch on Thu, 04 Jun 1981 UTC launched from the Plesetsk Missile And Space Complex (PKMTR). Debris objects in space refer to the collection of defunct objects orbiting the Earth. Examples of debris include non-operational satellites, rocket bodies, and fragments generated from explosions, collisions, or faulty payload assembly.

Loading next visibility...
Identifier
39962, 1981-053NY
Orbit
LEO
Country
Flag of CISCIS
Related business
Manufacturer
Unknown
Mission
Spacecraft
Bus & Motor
Unknown
Mass
Unknown
Launch date (UTC)
1981-06-04 (44 years ago)
Launch vehicle
Unknown
Launch site
Plesetsk Missile And Space Complex (PKMTR)
Object type
Payload
Rocket body
Debris
Shape & HBR
Unknown shape, 0.1 m
Radar Cross Section
Small (<0.1 m²)

Expand to show TLE details & history
Last TLE update: 1 day ago

TLE from 1 day ago
0 COSMOS 1275 DEB
1 39962U 81053NY  25286.14900897  .00000999  00000-0  92612-3 0  9997
2 39962  82.8165 243.8192 0074384  30.7032 329.8447 13.80140852571137
Epoch: 2025-10-13T03:34Z
TLE epoch observation values (Epoch: 2025-10-13T03:34:34.375Z)
Latitude
-0.00001°
Longitude
168.22003°
Altitude
919.166 km
Speed
7.416 km/s
True Right ascension
16h 15m 16s
True Declination
0° 00' 00"
Sunlit
Object was in daylight at epoch
Visualization orbit readout
Latitude
Unknown
Longitude
Unknown
Altitude
Unknown
Speed
Unknown
Apparent Right ascension
Unknown
Apparent Declination
Unknown
Sunlit
N/A
Visualization observer readout
Local Sidereal Time
23:46:23
Azimuth
Unknown
Elevation
Unknown
Doppler factor
Unknown
Orbital elements
Apogee altitude
1,015.121 km
Perigee altitude
905.946 km
Semi-major axis
7,338.671 km
Eccentricity
0.00744
Inclination
82.8165°
RAAN
243.8192°
Arg. of periapsis
30.7032°
True anomaly
329.41305°
Mean anomaly
329.8447°
Eccentric anomaly
329.62922°
Mean motion
3.45237 °/min
Orbital period
104.28 mins
BSTAR
0.00092612
Loading maneuver chart data...
Computing Atmospheric mass density...
Loading historical data...
Loading historical data...
Loading historical data...
Loading historical data...
Loading historical data...
Loading historical data...
Loading historical data...

Documentation

Showing up to 5 results
|